User: anonymous   Login
Location: Unspecified
(0.0000°N, 0.0000°E)
Time: 10:18:03
(UTC+00:00)
Language:

Freja - Orbit

View from above orbital plane
View from above orbital plane
View from above satellite
View from above satellite

Ground track
Ground track

The orbit data is extracted from the following two-line orbital elements,

1 22161U 92064A   17294.89911322 -.00000089 +00000-0 +92891-5 0  9993
2 22161 062.9929 099.6904 0759458 329.6100 026.2869 13.30282064213296
Epoch (UTC): 21 October 2017 21:34:43
Eccentricity: 0.0759458
inclination: 62.9929°
perigee height: 574 km
apogee height: 1717 km
right ascension of ascending node: 99.6904°
argument of perigee: 329.6100°
revolutions per day: 13.30282064
mean anomaly at epoch: 26.2869°
orbit number at epoch: 21329

The dashed part of the orbit path shows where the satellite is in the earth's shadow,  

DLR